Weather History for KPMP - November, 2014

Change the Weather History Date:

Wednesday, November 19, 2014

  Actual Average Record
Temperature  
Mean Temperature 63 °F -  
Max Temperature 72 °F 82 °F 90 °F (1957)
Min Temperature 54 °F 65 °F 40 °F (1951)
Degree Days  
Heating Degree Days 2    
Growing Degree Days 13 (Base 50)    
Moisture  
Dew Point 55 °F    
Average Humidity 87    
Maximum Humidity 94    
Minimum Humidity 64    
Precipitation  
Precipitation 0.25 in - - ()
Sea Level Pressure  
Sea Level Pressure 30.18 in    
Wind  
Wind Speed 12 mph (NNW)    
Max Wind Speed 17 mph    
Max Gust Speed 17 mph    
Visibility 7 miles    
Events Rain    
Averages and records for this station are not official NWS values.
T = Trace of Precipitation, MM = Missing Value Source: NWS Daily Summary

Daily Weather History Graph

Daily Weather History Graph

Search for Another Location

Airport or City:

Trip Planner

Search our weather history database for the weather conditions in past years. The results will help you decide how hot, cold, wet, or windy it might be!

Date:

Astronomy

Nov. 19, 2014 Rise Set
Actual Time 6:42 AM EST 5:29 PM EST
Civil Twilight 6:17 AM EST 5:54 PM EST
Nautical Twilight 5:49 AM EST 6:22 PM EST
Astronomical Twilight 5:21 AM EST 6:49 PM EST
Moon 3:53 AM EST (11/19) 3:41 PM EST (11/19)
Length of Visible Light 11h 36m
Length of Day
10h 47m
Waning Crescent, 9% of the Moon is Illuminated
Nov 19
Waning Crescent
Nov 22
New
Nov 29
First Quarter
Dec 6
Full
Dec 14
Last Quarter

Hourly Weather History & Observations

Time (EST) Temp. Dew Point Humidity Pressure Visibility Wind Dir Wind Speed Gust Speed Precip Events Conditions
12:53 AM 57.9 °F 55.0 °F 90% 30.17 in 3.0 mi NNW 10.4 mph - 0.04 in Rain Heavy Rain
1:50 AM 55.4 °F 53.6 °F 94% 30.17 in 4.0 mi NW 17.3 mph - 0.02 in Rain Light Rain
1:53 AM 55.9 °F 54.0 °F 93% 30.17 in 4.0 mi NNW 16.1 mph - 0.02 in Rain Light Rain
2:01 AM 55.0 °F 53.1 °F 93% 30.17 in 4.0 mi NW 16.1 mph - 0.00 in Rain Light Rain
2:09 AM 54.0 °F 52.0 °F 93% 30.17 in 5.0 mi NW 15.0 mph - 0.00 in Rain Light Rain
2:38 AM 54.0 °F 52.0 °F 93% 30.15 in 8.0 mi NNW 11.5 mph - 0.00 in Rain Light Rain
2:53 AM 54.0 °F 52.0 °F 93% 30.17 in 7.0 mi NW 12.7 mph - 0.00 in Rain Light Rain
3:00 AM 54.0 °F 52.0 °F 93% 30.16 in 2.0 mi NW 12.7 mph - 0.07 in Rain Heavy Rain
3:05 AM 55.0 °F 53.1 °F 93% 30.16 in 1.5 mi NNW 12.7 mph - 0.10 in Rain Heavy Rain
3:12 AM 55.0 °F 53.1 °F 93% 30.16 in 2.0 mi NNW 11.5 mph - 0.14 in Rain Heavy Rain
3:18 AM 55.0 °F 53.1 °F 93% 30.16 in 3.0 mi NW 12.7 mph - 0.15 in Rain Light Rain
3:34 AM 55.0 °F 53.1 °F 93% 30.16 in 9.0 mi NNW 12.7 mph - 0.15 in   Overcast
3:53 AM 55.0 °F 53.1 °F 93% 30.17 in 8.0 mi NW 13.8 mph - 0.15 in   Overcast
4:37 AM 55.0 °F 53.1 °F 93% 30.16 in 8.0 mi NW 10.4 mph - 0.03 in Rain Light Rain
4:53 AM 55.0 °F 53.1 °F 93% 30.17 in 9.0 mi NW 9.2 mph - 0.03 in   Overcast
5:14 AM 55.9 °F 54.0 °F 93% 30.16 in 5.0 mi NNW 9.2 mph - 0.00 in Rain Light Rain
5:53 AM 55.0 °F 53.1 °F 93% 30.18 in 8.0 mi NNW 10.4 mph - 0.01 in Rain Light Rain
6:27 AM 55.9 °F 53.1 °F 90% 30.18 in 9.0 mi North 8.1 mph - 0.00 in   Overcast
6:53 AM 55.9 °F 53.1 °F 90% 30.19 in 9.0 mi NW 11.5 mph - 0.00 in   Overcast
7:26 AM 55.0 °F 52.0 °F 89% 30.20 in 8.0 mi NNW 9.2 mph - N/A   Overcast
7:53 AM 55.9 °F 52.0 °F 87% 30.21 in 10.0 mi NNW 11.5 mph - 0.00 in Rain Light Rain
8:53 AM 57.9 °F 54.0 °F 87% 30.22 in 9.0 mi NNW 10.4 mph - 0.00 in   Overcast
9:53 AM 57.9 °F 54.0 °F 87% 30.24 in 8.0 mi NW 12.7 mph - 0.00 in Rain Light Rain
10:53 AM 57.9 °F 54.0 °F 87% 30.24 in 5.0 mi NNW 10.4 mph - 0.00 in   Overcast
11:53 AM 60.1 °F 54.0 °F 80% 30.21 in 10.0 mi NNW 8.1 mph - N/A   Overcast
12:53 PM 62.1 °F 54.0 °F 75% 30.18 in 10.0 mi NNW 9.2 mph - N/A   Overcast
1:53 PM 62.1 °F 55.0 °F 78% 30.18 in 10.0 mi NW 10.4 mph - N/A   Overcast
2:53 PM 62.1 °F 57.0 °F 84% 30.17 in 8.0 mi NNW 6.9 mph - 0.00 in   Overcast
3:24 PM 63.0 °F 57.0 °F 81% 30.16 in 9.0 mi NNW 8.1 mph - N/A   Overcast
3:53 PM 64.0 °F 57.0 °F 78% 30.17 in 9.0 mi NW 9.2 mph - N/A   Overcast
4:53 PM 64.0 °F 59.0 °F 84% 30.16 in 7.0 mi North 6.9 mph - 0.00 in Rain Light Rain
5:53 PM 64.9 °F 60.1 °F 84% 30.16 in 9.0 mi NW 6.9 mph - 0.00 in   Overcast
6:53 PM 68.0 °F 60.1 °F 76% 30.16 in 10.0 mi NNE 13.8 mph 17.3 mph N/A   Mostly Cloudy
7:53 PM 72.0 °F 59.0 °F 64% 30.17 in 10.0 mi ENE 11.5 mph - N/A   Overcast
8:53 PM 66.0 °F 59.0 °F 78% 30.18 in 10.0 mi NNW 8.1 mph - N/A   Overcast
9:53 PM 64.9 °F 59.0 °F 81% 30.18 in 10.0 mi NNW 6.9 mph - N/A   Overcast
10:53 PM 64.9 °F 59.0 °F 81% 30.18 in 10.0 mi NW 8.1 mph - N/A   Overcast
11:53 PM 64.0 °F 57.9 °F 80% 30.17 in 10.0 mi NNW 8.1 mph - 0.00 in   Overcast